Weather in Perama

Greece     39°34′56″N   19°54′51″E
temp.,
°C
wind,
m/s
gust,
m/s
humid.,
%
clouds,
%
prec.,
mm/h
press.,
hPa
HPBL,
m
28 february, sun
sun2823:00+15ne11730 0.0 1021175
02:00+15ese22744 0.0 1021225
05:00+15se23770 0.0 1021239
08:00+15ese237614 0.0 1022248
11:00+15e2264100 0.0 1023185
14:00+15nw1159100 0.0 102371
17:00+15nw3373100 0.1 1024163
20:00+16nne3378100 0.1 1025133
1 march, mon
mon123:00+15ene227330 0.1 102798
02:00+15sse456952 0.3 1027464
05:00+14ese336477 0.0 1026332
08:00+14ese226180 0.1 1026274
11:00+14sse226217 0.0 1026343
14:00+14ssw33718 0.0 1025417
17:00+15nw12690 0.0 1024419
20:00+14nnw22640 0.0 1025296
2 march, tue
tue223:00+14nne33650 0.0 1026332
02:00+14e35640 0.1 1028347
05:00+13ene674919 0.1 1028365
08:00+12e565016 0.1 1029364
11:00+12e33460 0.0 1031431
14:00+13wsw22420 0.0 1031253
17:00+14nw56550 0.0 1030917
20:00+14nw67630 0.0 1031860
3 march, wed
wed323:00+13nnw44680 0.0 1031577
02:00+13nne22670 0.0 1031350
05:00+12e32730 0.0 1030241
08:00+11e33600 0.0 1030218
11:00+12ese11520 0.0 1030198
14:00+13wsw22590 0.0 1029253
17:00+13wnw22630 0.0 1028319
20:00+14n23590 0.0 1028263
4 march, thu
thu423:00+14n11580 0.0 1028221
02:00+14ese11590 0.0 1027236
05:00+13ese22610 0.0 1026280
08:00+13ese33650 0.0 1026323
11:00+14s44670 0.0 1025532
14:00+14ssw336411 0.0 1023519
17:00+14sw22620 0.0 1022437
20:00+13sw116113 0.0 1022439